Flag for Germany Weather past 2 weeks in Bad Nauheim, Hesse, Germany

Now
68 °F

Overcast.


Feels Like: 68 °F
Forecast: 55 / 75 °F
Wind: 2 mph from Southwest

Location: Giessen

Current Time: Sep 19, 2014 at 2:04:47 PM

Latest Report: Sep 19, 2014 at 1:00 PM


Visibility: 6 mi

Pressure: 29.90 "Hg

Humidity: 83%

Dew point: 62 °F

Location of Bad NauheimLocation

Historic Weather in Bad Nauheim — Graph

°F

Bad Nauheim temperature yesterday

Maximum temperature yesterday: 70 °F (at 3:00 PM)
Minimum temperature yesterday: 53 °F (at 5:00 AM)
Average temperature yesterday: 61 °F

Past Weeks' High & Low Weather Summary

 TemperatureHumidityPressure
High78 °F (Sep 6, 4:00 PM)99% (Sep 6, 6:00 AM)30.20 "Hg (Sep 6, 6:00 AM)
Low48 °F (Sep 12, 4:00 AM)50% (Sep 8, 4:00 PM)29.84 "Hg (Sep 6, 6:00 PM)
Average61 °F83%30.02 "Hg
* Reported Sep 4 1:00 PM — Sep 19 1:00 PM, Bad Nauheim, Weather by CustomWeather, © 2014

Note: Actual official high and low records may vary slightly from our data, if they occured in-between our weather recording intervals... More about our weather records

Advertising

Bad Nauheim weather history for previous 24 hours

 ConditionsComfort  
Time TempWeatherWind HumidityBarometerVisibility
1:00 PM
Sep 19
68 °FOvercast.2 mph83%29.90 "Hg6 mi
12:00 PM66 °FFog.2 mph87%29.90 "Hg4 mi
11:00 AM64 °FFog.1 mph96%29.91 "Hg4 mi
10:00 AM61 °FFog.2 mph98%29.91 "Hg4 mi
9:00 AM59 °FPartly sunny.2 mph99%29.90 "Hg2 mi
8:00 AM58 °FLow clouds.2 mph99%29.90 "Hg0 mi
7:00 AM57 °FLow clouds.2 mph99%29.88 "Hg0 mi
6:00 AM57 °FLow clouds.1 mph98%29.88 "Hg0 mi
5:00 AM58 °FPassing clouds.2 mph98%29.88 "Hg1 mi
4:00 AM59 °FPassing clouds.1 mph98%29.89 "Hg1 mi
3:00 AM61 °FFog.2 mph98%29.89 "Hg1 mi
2:00 AM61 °FCool.3 mph97%29.90 "Hg2 mi
1:00 AM62 °FLight rain. Overcast.2 mph96%29.90 "Hg2 mi
12:00 AM62 °FFog.2 mph95%29.90 "Hg4 mi
11:00 PM
Sep 18
62 °FOvercast.2 mph94%29.89 "Hg6 mi
10:00 PM63 °FMild.2 mph94%29.89 "Hg5 mi
9:00 PM65 °FMild.2 mph89%29.89 "Hg8 mi
8:00 PM66 °FMild.2 mph88%29.88 "Hg6 mi
7:00 PM68 °FOvercast.2 mph82%29.87 "Hg11 mi
6:00 PM69 °FOvercast.3 mph80%29.87 "Hg12 mi
5:00 PM70 °FOvercast.5 mph77%29.87 "Hg12 mi
4:00 PM69 °FLight rain. Overcast.2 mph78%29.87 "Hg12 mi
3:00 PM70 °FLight rain. Overcast.2 mph71%29.88 "Hg14 mi
2:00 PM68 °FLight rain. Overcast.1 mph75%29.88 "Hg11 mi
Weather by CustomWeather, © 2014

See weather overviewHow to use our weather pages